SP5QWJ Weather Reports


Display with metric or nautical units.
time (UTC)temp
F
wind
direction
speed
MPH
gust
MPH
rain 1hr
in
rain 24hr
in
rain mn
in
humidity
%
barometer
mb
20260905203311 60 0.0 0.0 0.00 0.00 0.00 100 1013.8
20260905201806 60 0.0 0.0 0.00 0.00 0.00 100 1013.7
20260905200302 61 0.0 0.0 0.00 0.00 0.00 100 1013.5
20260905194800 61 0.0 0.0 0.00 0.00 0.00 100 1013.6
20260905193258 61 0.0 0.0 0.00 0.00 0.00 100 1013.6
20260905191749 61 0.0 0.0 0.00 0.00 0.00 100 1013.3
20260905190246 60 0.0 0.0 0.00 0.00 0.00 100 1013.4
20260905184743 60 0.0 0.0 0.00 0.00 0.00 100 1013.4
20260905183242 60 0.0 0.0 0.00 0.00 0.00 100 1013.5
20260905181738 60 0.0 0.0 0.00 0.00 0.00 100 1013.8
20260905180235 60 0.0 0.0 0.00 0.00 0.00 100 1013.6
20260905174731 61 0.0 0.0 0.00 0.00 0.00 100 1013.6
20260905173225 61 0.0 0.0 0.00 0.00 0.00 100 1013.5
20260905171720 62 0.0 0.0 0.00 0.00 0.00 100 1013.2
20260905170218 62 0.0 0.0 0.00 0.00 0.00 100 1013.3
20260905164711 62 0.0 0.0 0.00 0.00 0.00 100 1013.4
20260905163202 62 0.0 0.0 0.00 0.00 0.00 100 1013.3
20260905161659 62 0.0 0.0 0.00 0.00 0.00 100 1013.1
20260905160157 62 0.0 0.0 0.00 0.00 0.00 100 1013.0
20260905154652 62 0.0 0.0 0.00 0.00 0.00 100 1012.9
20260905153147 61 0.0 0.0 0.00 0.00 0.00 100 1013.1
20260905151643 63 0.0 0.0 0.00 0.00 0.00 100 1013.3
20260905150141 64 0.0 0.0 0.00 0.00 0.00 100 1013.3
20260905144637 66 0.0 0.0 0.00 0.00 0.00 93 1013.0
20260905143133 67 0.0 0.0 0.00 0.00 0.00 90 1012.5
20260905141629 68 0.0 0.0 0.00 0.00 0.00 89 1012.3
20260905140124 69 0.0 0.0 0.00 0.00 0.00 89 1012.1
20260905134620 69 0.0 0.0 0.00 0.00 0.00 89 1012.1
20260905133119 69 0.0 0.0 0.00 0.00 0.00 91 1012.1
20260905131613 68 0.0 0.0 0.00 0.00 0.00 91 1012.2
20260905130105 69 0.0 0.0 0.00 0.00 0.00 91 1012.2
20260905124605 69 0.0 0.0 0.00 0.00 0.00 92 1012.1
20260905123101 69 0.0 0.0 0.00 0.00 0.00 93 1012.1
20260905121556 68 0.0 0.0 0.00 0.00 0.00 93 1012.3
20260905120053 69 0.0 0.0 0.00 0.00 0.00 93 1012.1
20260905114549 69 0.0 0.0 0.00 0.00 0.00 96 1012.1
20260905113039 67 0.0 0.0 0.00 0.00 0.00 99 1012.0
20260905111537 67 0.0 0.0 0.00 0.00 0.00 99 1012.0
20260905110034 68 0.0 0.0 0.00 0.00 0.00 100 1012.0
20260905104526 66 0.0 0.0 0.00 0.00 0.00 100 1011.9
20260905103023 67 0.0 0.0 0.00 0.00 0.00 100 1011.8
20260905101519 70 0.0 0.0 0.00 0.00 0.00 99 1011.6
20260905100013 69 0.0 0.0 0.00 0.00 0.00 100 1011.5
20260905094506 69 0.0 0.0 0.00 0.00 0.00 100 1011.4
20260905093000 66 0.0 0.0 0.00 0.00 0.00 100 1011.5
20260905091458 67 0.0 0.0 0.00 0.00 0.00 100 1011.4
20260905085954 67 0.0 0.0 0.00 0.00 0.00 100 1011.2
20260905084450 68 0.0 0.0 0.00 0.00 0.00 100 1011.1
20260905082948 70 0.0 0.0 0.00 0.00 0.00 100 1011.1
20260905081443 70 0.0 0.0 0.00 0.00 0.00 100 1011.0
20260905075941 66 0.0 0.0 0.00 0.00 0.00 100 1010.9
20260905074435 66 0.0 0.0 0.00 0.00 0.00 100 1010.9
20260905072934 71 0.0 0.0 0.00 0.00 0.00 100 1010.8
20260905071433 64 0.0 0.0 0.00 0.00 0.00 100 1010.5
20260905065932 64 0.0 0.0 0.00 0.00 0.00 100 1010.4
20260905064428 64 0.0 0.0 0.00 0.00 0.00 100 1010.0
20260905062926 64 0.0 0.0 0.00 0.00 0.00 100 1009.9
20260905061418 63 0.0 0.0 0.00 0.00 0.00 100 1009.7
20260905055917 62 0.0 0.0 0.00 0.00 0.00 100 1009.6
20260905054414 62 0.0 0.0 0.00 0.00 0.00 100 1009.4
20260905052910 61 0.0 0.0 0.00 0.00 0.00 100 1009.3
20260905051408 61 0.0 0.0 0.00 0.00 0.00 100 1009.2
20260905045906 61 0.0 0.0 0.00 0.00 0.00 100 1009.0
20260905044401 61 0.0 0.0 0.00 0.00 0.00 100 1008.8
20260905042859 61 0.0 0.0 0.00 0.00 0.00 100 1008.6
20260905041357 62 0.0 0.0 0.00 0.00 0.00 100 1008.4
20260905035853 62 0.0 0.0 0.00 0.00 0.00 100 1008.0
20260905034348 63 0.0 0.0 0.00 0.00 0.00 100 1007.7
20260905032846 63 0.0 0.0 0.00 0.00 0.00 100 1007.2
20260905031343 63 0.0 0.0 0.00 0.00 0.00 100 1006.8
20260905025840 63 0.0 0.0 0.00 0.00 0.00 100 1006.9
20260905024335 63 0.0 0.0 0.00 0.00 0.00 100 1006.7
20260905022832 64 0.0 0.0 0.00 0.00 0.00 100 1006.8
20260905021328 64 0.0 0.0 0.00 0.00 0.00 100 1006.6
20260905015825 64 0.0 0.0 0.00 0.00 0.00 100 1006.4
20260905014320 64 0.0 0.0 0.00 0.00 0.00 100 1006.1
20260905012820 64 0.0 0.0 0.00 0.00 0.00 100 1006.3
20260905011316 64 0.0 0.0 0.00 0.00 0.00 100 1006.2
20260905005813 64 0.0 0.0 0.00 0.00 0.00 100 1005.9
20260905004311 64 0.0 0.0 0.00 0.00 0.00 100 1005.5
20260905002809 65 0.0 0.0 0.00 0.00 0.00 100 1005.4
20260905001305 65 0.0 0.0 0.00 0.00 0.00 100 1005.2
20260904235804 65 0.0 0.0 0.00 0.00 0.00 100 1005.3
20260904234300 65 0.0 0.0 0.00 0.00 0.00 100 1005.2
20260904232756 65 0.0 0.0 0.00 0.00 0.00 100 1005.1
20260904231254 65 0.0 0.0 0.00 0.00 0.00 100 1005.0
20260904225748 65 0.0 0.0 0.00 0.00 0.00 100 1005.1
20260904224245 65 0.0 0.0 0.00 0.00 0.00 100 1005.0
20260904222742 65 0.0 0.0 0.00 0.00 0.00 100 1004.5
20260904221233 65 0.0 0.0 0.00 0.00 0.00 100 1004.6
20260904215730 65 0.0 0.0 0.00 0.00 0.00 100 1004.6
20260904214227 65 0.0 0.0 0.00 0.00 0.00 100 1004.6
20260904212725 64 0.0 0.0 0.00 0.00 0.00 100 1004.1
20260904211222 64 0.0 0.0 0.00 0.00 0.00 100 1004.3
20260904205719 64 0.0 0.0 0.00 0.00 0.00 100 1004.2
20260904204215 65 0.0 0.0 0.00 0.00 0.00 100 1004.2